Columbia, MO

3:41 AM CST on February 27, 2017 (GMT -0600)
Columbia Regional

Weather History for KCOU - October, 2010

Change the Weather History Date:

Saturday, October 16, 2010

  Actual Average Record
Temperature  
Mean Temperature 61 °F 56 °F  
Max Temperature 80 °F 67 °F 86 °F (1950)
Min Temperature 41 °F 45 °F 30 °F (1976)
Degree Days  
Heating Degree Days 4 9  
Month to date heating degree days 88 121  
Since 1 July heating degree days 116 189  
Cooling Degree Days 0 0  
Month to date cooling degree days 9 15  
Year to date cooling degree days 1497 1242  
Growing Degree Days 10 (Base 50)    
Moisture  
Dew Point 45 °F    
Average Humidity 60    
Maximum Humidity 89    
Minimum Humidity 31    
Precipitation  
Precipitation 0.00 in 0.10 in 1.49 in (1905)
Month to date precipitation 0.05 1.81  
Year to date precipitation 41.56 35.43  
Snow  
Snow 0.00 in 0.00 in 0.00 in (2015)
Month to date snowfall 0.0 0.0  
Since 1 July snowfall 0.0 0.0  
Since 1 September snowfall 0.0 0.0  
Snow Depth 0.00 in    
Sea Level Pressure  
Sea Level Pressure 30.09 in    
Wind  
Wind Speed 9 mph (South)    
Max Wind Speed 17 mph    
Max Gust Speed 23 mph    
Visibility 10 miles    
Events      
T = Trace of Precipitation, MM = Missing Value Source: NWS Daily Summary

Daily Weather History Graph

Daily Weather History Graph

Search for Another Location

Airport or City:

Trip Planner

Search our weather history database for the weather conditions in past years. The results will help you decide how hot, cold, wet, or windy it might be!

Date:

Astronomy

Oct. 16, 2010 Rise Set
Actual Time 7:19 AM CDT 6:29 PM CDT
Civil Twilight 6:52 AM CDT 6:55 PM CDT
Nautical Twilight 6:21 AM CDT 7:26 PM CDT
Astronomical Twilight 5:50 AM CDT 7:57 PM CDT
Moon 3:18 PM CDT (10/16) 1:16 AM CDT (10/16)
Length of Visible Light 12h 03m
Length of Day
11h 09m
Waxing Gibbous, 67% of the Moon is Illuminated
Oct 16
Waxing Gibbous
Oct 22
Full
Oct 30
Last Quarter
Nov 5
New
Nov 13
First Quarter

Hourly Weather History & Observations

Time (CDT) Temp. Windchill Dew Point Humidity Pressure Visibility Wind Dir Wind Speed Gust Speed Precip Events Conditions
12:54 AM 52.0 °F - 37.0 °F 57% 30.12 in 10.0 mi SSE 3.5 mph - N/A   Clear
1:54 AM 46.9 °F - 37.9 °F 71% 30.12 in 10.0 mi SE 5.8 mph - N/A   Clear
2:54 AM 44.1 °F 40.1 °F 37.9 °F 79% 30.13 in 10.0 mi SSE 6.9 mph - N/A   Clear
3:54 AM 44.1 °F 40.1 °F 39.0 °F 82% 30.12 in 10.0 mi SSE 6.9 mph - N/A   Clear
4:54 AM 42.1 °F 36.6 °F 37.9 °F 85% 30.12 in 10.0 mi SSE 9.2 mph - N/A   Clear
5:54 AM 43.0 °F 38.8 °F 39.0 °F 86% 30.13 in 10.0 mi SSE 6.9 mph - N/A   Clear
6:54 AM 43.0 °F 38.2 °F 37.9 °F 82% 30.14 in 10.0 mi SSE 8.1 mph - N/A   Clear
7:54 AM 44.1 °F 39.0 °F 39.0 °F 82% 30.14 in 10.0 mi SSE 9.2 mph - N/A   Clear
8:54 AM 50.0 °F - 42.1 °F 74% 30.15 in 10.0 mi South 9.2 mph - N/A   Clear
9:54 AM 55.9 °F - 42.1 °F 60% 30.14 in 10.0 mi South 10.4 mph - N/A   Clear
10:54 AM 63.0 °F - 44.1 °F 50% 30.13 in 10.0 mi South 10.4 mph - N/A   Clear
11:54 AM 69.1 °F - 45.0 °F 42% 30.12 in 10.0 mi South 10.4 mph - N/A   Clear
12:54 PM 75.0 °F - 45.0 °F 34% 30.08 in 10.0 mi South 12.7 mph - N/A   Clear
1:54 PM 77.0 °F - 45.0 °F 32% 30.05 in 10.0 mi SSW 16.1 mph - N/A   Clear
2:54 PM 79.0 °F - 46.9 °F 32% 30.03 in 10.0 mi South 15.0 mph - N/A   Clear
3:54 PM 79.0 °F - 48.9 °F 35% 30.02 in 10.0 mi South 12.7 mph - N/A   Clear
4:54 PM 79.0 °F - 50.0 °F 36% 30.01 in 10.0 mi South 10.4 mph - N/A   Clear
5:54 PM 73.0 °F - 52.0 °F 48% 30.01 in 10.0 mi South 8.1 mph - N/A   Clear
6:54 PM 66.0 °F - 51.1 °F 59% 30.03 in 10.0 mi SSW 9.2 mph - N/A   Clear
7:54 PM 63.0 °F - 52.0 °F 67% 30.05 in 10.0 mi SSW 9.2 mph - N/A   Clear
8:54 PM 64.0 °F - 53.1 °F 67% 30.05 in 10.0 mi SSW 6.9 mph - N/A   Clear
9:54 PM 62.1 °F - 53.1 °F 72% 30.05 in 10.0 mi SSW 8.1 mph - N/A   Clear
10:54 PM 63.0 °F - 52.0 °F 67% 30.06 in 10.0 mi SW 6.9 mph - N/A   Clear
11:54 PM 62.1 °F - 51.1 °F 67% 30.07 in 10.0 mi NW 4.6 mph - N/A   Clear